522  
NZUS59 KLOT 142204  
HRRLOT  
 
CHICAGO AREA WEATHER ROUNDUP  
NATIONAL WEATHER SERVICE CHICAGO/ROMEOVILLE IL  
500 PM CDT TUE AUG 14 2018  
 
NOTE: "FAIR" INDICATES FEW OR NO CLOUDS BELOW 12,000 FEET WITH NO  
SIGNIFICANT WEATHER AND/OR OBSTRUCTIONS TO VISIBILITY.  
 
* THESE STATIONS ARE NOT UNDER NWS QUALITY CONTROL. THEY ALSO MAY NOT  
REPORT WEATHER SUCH AS PRECIPITATION OR FOG.  
 
ILZ005-006-012>014-019>023-142300-  
NORTHEAST ILLINOIS  
 
CITY SKY/WX TMP DP RH WIND PRES REMARKS  
OHARE PTSUNNY 86 63 45 W6 29.95S HX 87  
MIDWAY PTSUNNY 88 60 38 VRB5 29.94F HX 87  
AURORA N/A 86 67 52 NW5 29.96F HX 89  
LANSING* N/A 85 61 44 S7 29.96S HX 85  
JOLIET* N/A 88 62 41 SW3 29.95F HX 88  
WAUKEGAN CLOUDY 81 68 64 SE8 29.95S HX 84  
DUPAGE AIRPORT N/A 84 64 50 W7 29.96S HX 85  
WHEELING N/A 86 64 47 NW6 29.96F HX 87  
KANKAKEE* N/A 86 60 40 SW7 29.97S HX 86  
MORRIS* N/A 86 62 43 CALM 29.95S HX 86  
LEWIS AIRPORT* N/A 86 62 44 SW7 29.96S HX 86  
NORTHERLY ISL N/A 82 70 66 E7 N/A HX 86  
NORTHERLY IS NOT AVBL  
NORTHERLY ISL NOT AVBL  

 
 
WIZ051-052-058>065-066-070>072-142300-  
SOUTHEAST WISCONSIN  
 
CITY SKY/WX TMP DP RH WIND PRES REMARKS  
MILWAUKEE PTSUNNY 85 64 49 SW10 29.94F HX 86  
KENOSHA* N/A 82 71 69 W3 29.96S HX 86  
RACINE* N/A 83 66 56 SW5 29.96F HX 85  
WAUKESHA SUNNY 81 63 54 W7 29.97F HX 82  
WEST BEND N/A 82 61 47 W5 29.94F HX 83  

 
 
INZ001>003-010>013-019-020-142300-  
NORTHWEST INDIANA  
 
CITY SKY/WX TMP DP RH WIND PRES REMARKS  
GARY* PTSUNNY 88 61 40 VRB5 29.95F HX 88  
MICHIGAN CITY* NOT AVBL  
RENSSELAER* NOT AVBL  
VALPARAISO PTSUNNY 87 62 43 SE5 29.98F HX 87  

 
 
LMZ740>746-142300-  
SOUTHERN LAKE MICHIGAN  
 
STATION/POSITION TIME SKY/WX TEMP WIND PRES VSBY  
AIR DIR/SP/G  
(UTC) (F) (DEG/KT/KT) (MB) (MI)  
HARRISON CRIB 2140 80 130/ 13/ 14 N/A  
NORTHERLY ISL 2200 82 80/ 7/ 13 N/A  
CALUMET HARBOR 2130 88 240/ 4/ 6 1013.6F  
BURNS HARBOR 2140 85 1014.9F  
MICHIGAN CITY 2140 80 40/ 7/ 7 N/A  

 
 
ABBREVIATIONS USED IN REMARKS  
TC - TEMPERATURE IN CELSIUS  
WCI - WIND CHILL INDEX  
HX - HEAT INDEX  
VSB - VISIBILITY  

 
 
 
CLICK HERE TO GO TO PREVIOUS BULLETINS.

The Nexlab IL Page
The Nexlab IN Page Main Text Page